Voltar ao catálogo

GEESAT 4-02

AtivoCiênciaLEO
NORAD 65120·PAYLOAD·🇨🇳 China

Lançado Aug 8, 2025 de Yellow Sea Launch Area

Loading…

Próximas Passagens (próximas 24 horas)

TLE

AtualizadoSource: Space-Track

Época: Sep 14, 2026, 15:15 UTC

1 65120U 25170B   26257.63572575  .00001148  00000-0  16260-3 0  9993
2 65120  49.9851 119.3166 0009682  72.1727 288.0267 14.84264953 59744

Acompanhe GEESAT 4-02 em tempo real com AllMySat

Download on the App Store